Date,TemperatureHighF,TemperatureAvgF,TemperatureLowF,DewpointHighF,DewpointAvgF,DewpointLowF,HumidityHigh,HumidityAvg,HumidityLow,PressureMaxIn,PressureMinIn,WindSpeedMaxMPH,WindSpeedAvgMPH,GustSpeedMaxMPH,PrecipitationSumIn
2013-1-12,56,56,55,55,54,54,95,94,94,30.16,30.15,0,0,12,0.11
2013-1-13,76,63,55,63,58,54,97,85,58,30.19,30.08,2,0,6,0.02
2013-1-14,68,63,56,63,59,54,97,89,76,30.19,30.11,2,0,4,0.00
2013-1-15,62,47,45,60,45,44,96,93,89,30.29,30.09,2,0,8,0.00
2013-1-16,50,47,44,50,46,43,97,96,95,30.12,30.01,2,0,5,0.07
2013-1-17,51,47,33,50,46,32,97,96,92,30.18,29.94,4,0,14,0.50
2013-1-18,50,37,30,36,30,24,96,78,40,30.58,30.19,4,0,13,0.19
2013-1-19,57,38,27,34,29,25,92,73,35,30.56,30.20,2,0,7,0.00
2013-1-20,65,49,35,36,33,30,88,56,28,30.20,30.00,4,1,11,0.00
2013-1-21,61,46,31,37,29,16,89,54,27,30.13,29.89,4,1,9,0.00
2013-1-22,44,34,25,19,8,-6,52,34,15,30.34,29.99,4,1,12,0.00
2013-1-23,42,30,20,18,11,3,69,48,27,30.43,30.11,4,0,9,0.00
2013-1-24,37,31,23,25,16,6,76,53,28,30.58,29.99,6,1,22,0.00
2013-1-25,28,25,21,25,16,7,89,69,43,30.59,30.15,1,0,3,0.01
2013-1-26,37,30,27,33,28,25,93,90,82,30.45,30.13,1,0,3,0.00
2013-1-27,43,31,25,30,26,23,94,83,58,30.65,30.45,2,0,4,0.00
2013-1-28,53,43,30,48,36,26,90,79,60,30.56,30.25,3,0,9,0.01
2013-1-29,75,58,49,57,51,46,92,79,54,30.27,30.10,3,1,11,0.00
2013-1-30,72,66,54,64,61,52,96,84,73,30.11,29.41,5,1,11,0.00
2013-1-31,68,48,34,64,31,18,88,55,29,30.06,29.44,9,2,18,0.11
2013-2-1,42,36,26,28,14,2,73,44,21,30.45,29.92,8,2,17,0.00
2013-2-2,45,34,20,35,14,8,74,47,26,30.45,30.07,4,0,11,0.00
2013-2-3,50,42,34,36,30,23,89,63,41,30.06,29.88,4,1,10,0.00
2013-2-4,51,39,27,28,23,19,81,56,33,30.19,30.02,3,0,7,0.00
2013-2-5,62,47,38,35,32,27,77,58,33,30.05,29.90,3,0,8,0.00
2013-2-6,64,46,33,37,30,24,90,60,22,30.34,30.01,4,0,10,0.00
2013-2-7,51,42,35,42,37,30,95,81,64,30.38,30.03,2,0,4,0.18
2013-2-8,56,46,40,46,40,28,95,80,53,30.08,29.83,4,2,15,0.26
2013-2-9,58,40,30,29,24,18,82,57,22,30.41,30.07,4,1,12,0.01
2013-2-10,59,40,28,40,25,20,84,58,22,30.53,30.25,2,0,5,0.00
2013-2-11,63,55,44,60,52,39,96,90,84,30.26,29.93,2,0,6,0.02
2013-2-12,62,54,46,54,37,27,89,56,28,30.11,29.93,3,0,8,0.00
2013-2-13,49,47,43,47,43,37,95,89,65,29.99,29.65,2,0,6,0.13
2013-2-14,55,43,33,38,34,31,92,73,46,30.12,29.86,2,0,4,0.00
2013-2-15,67,45,31,45,34,29,95,69,29,30.13,29.96,2,0,4,0.00
2013-2-16,45,37,31,36,32,29,93,84,66,30.01,29.87,3,0,6,0.14
2013-2-17,41,30,25,29,17,8,93,59,30,30.33,29.95,4,0,11,0.01
2013-2-18,58,35,20,27,18,15,84,56,24,30.47,30.32,2,0,4,0.02
2013-2-22,39,37,36,35,34,31,94,87,77,30.35,30.18,1,0,4,0.08
2013-2-23,44,40,36,43,39,34,96,95,94,30.18,29.84,2,0,4,0.45
2013-2-24,64,50,40,50,40,31,98,72,32,30.08,29.82,3,1,6,0.07
2013-2-25,44,38,33,31,25,22,74,60,44,30.27,30.08,3,1,7,0.00
2013-2-26,56,45,35,56,41,26,99,88,66,30.19,29.58,2,1,7,0.46
2013-2-27,62,50,42,45,41,37,98,74,41,29.81,29.64,3,1,8,0.00
2013-2-28,50,43,34,40,33,27,91,69,44,29.89,29.73,3,0,8,0.00
2013-3-1,55,41,31,33,29,26,86,64,37,29.95,29.86,2,0,8,0.00
2013-3-2,52,40,31,30,26,20,83,60,39,29.95,29.84,3,1,8,0.00
2013-3-3,49,37,30,23,20,17,65,51,34,30.02,29.86,3,1,7,0.00
2013-3-4,52,37,28,24,17,12,68,46,22,30.14,30.01,4,1,10,0.00
2013-3-5,54,42,32,43,35,24,95,77,38,30.12,29.61,2,0,5,0.17
2013-3-6,46,42,37,43,34,28,96,75,55,30.05,29.52,5,2,17,0.01
2013-3-7,54,43,33,34,30,26,83,61,40,30.27,30.05,3,1,10,0.00
2013-3-8,57,44,33,30,26,23,72,52,28,30.32,30.16,4,1,14,0.00
2013-3-9,65,47,32,34,29,26,78,53,24,30.37,30.26,3,0,7,0.00
2013-3-10,71,50,33,36,29,19,85,51,15,30.35,30.23,3,0,5,0.00
2013-3-11,72,55,38,53,44,30,85,66,45,30.29,29.98,4,1,11,0.00
2013-3-12,73,62,50,62,54,36,96,78,50,29.98,29.77,4,1,9,0.20
2013-3-13,60,48,36,37,29,20,84,50,25,30.16,29.96,4,1,12,0.00
2013-3-14,56,41,30,26,20,15,63,45,22,30.28,30.12,4,1,13,0.00
2013-3-15,65,48,29,36,28,20,77,49,27,30.22,29.92,3,0,9,0.00
2013-3-16,81,63,50,50,44,35,71,52,31,29.92,29.66,3,0,9,0.00
2013-3-17,60,52,40,52,45,37,94,77,63,30.23,29.85,4,1,9,0.00
2013-3-18,44,41,38,42,39,36,96,94,91,30.24,29.91,2,1,7,0.17
2013-3-19,70,53,41,49,34,10,96,60,16,30.05,29.85,4,1,10,0.00
2013-3-20,59,47,37,28,19,10,69,36,18,30.15,29.83,2,0,7,0.00
2013-3-21,48,40,32,32,21,10,72,47,25,30.01,29.75,4,1,11,0.00
2013-3-22,57,39,26,25,16,9,62,42,16,30.12,29.98,3,1,8,0.00
2013-3-23,60,46,36,34,28,20,74,51,27,30.09,29.93,3,0,4,0.00
2013-3-24,41,39,36,38,35,30,94,86,71,29.98,29.61,3,1,10,0.28
2013-3-25,52,41,36,38,31,24,94,70,37,29.84,29.58,4,1,12,0.01
2013-3-26,52,43,35,30,27,24,69,54,40,30.13,29.84,3,1,8,0.00
2013-3-27,60,43,34,27,25,21,73,52,23,30.26,30.13,4,1,12,0.00
2013-3-28,64,46,33,29,25,22,72,48,21,30.33,30.16,4,1,9,0.00
2013-3-29,68,47,31,32,28,24,81,51,20,30.37,30.20,4,0,9,0.00
2013-3-30,73,53,40,43,34,27,79,53,21,30.28,30.10,3,0,7,0.00
2013-3-31,71,57,48,58,50,42,95,80,60,30.14,29.82,3,0,8,0.30
2013-4-1,78,61,54,56,48,37,97,67,26,30.00,29.81,4,1,11,0.00
2013-4-2,69,51,38,37,29,20,76,46,17,30.20,30.01,4,1,10,0.00
2013-4-3,55,45,41,33,25,17,67,47,22,30.33,30.18,3,0,7,0.00
2013-4-4,52,43,40,39,32,22,94,67,42,30.41,29.97,3,1,10,0.35
2013-4-5,70,49,40,49,43,38,95,81,44,30.05,29.89,3,1,6,0.02
2013-4-6,74,54,43,42,33,24,89,49,19,30.32,30.04,3,1,9,0.00
2013-4-7,56,42,36,42,35,32,85,76,60,30.43,30.28,2,0,4,0.00
2013-4-9,86,76,67,58,57,56,70,54,36,30.12,30.06,2,0,7,0.00
2013-4-10,98,76,62,64,59,56,85,61,27,30.12,29.95,2,0,9,0.00
2013-4-11,89,73,63,66,61,57,88,67,38,30.02,29.82,2,1,8,0.00
2013-4-12,88,73,66,71,64,46,94,75,47,29.84,29.62,4,1,9,0.21
2013-4-13,85,66,53,48,42,36,69,46,19,30.03,29.78,2,1,6,0.00
2013-4-14,87,66,48,55,46,36,91,55,19,30.14,30.03,2,0,5,0.00
2013-4-15,75,66,59,58,56,54,88,72,53,30.25,30.06,2,1,5,0.00
2013-4-16,89,66,57,62,58,55,95,79,37,30.34,30.22,2,0,4,0.00
2013-4-17,84,70,57,65,61,55,95,76,50,30.27,30.12,2,0,4,0.00
2013-4-18,81,70,61,64,60,58,91,72,47,30.23,30.07,2,0,8,0.00
2013-4-19,83,72,65,68,65,61,95,81,58,30.08,29.74,4,1,11,0.17
2013-4-20,72,57,49,64,43,33,95,64,27,30.31,29.84,3,0,8,0.02
2013-4-21,64,53,44,43,40,38,90,65,43,30.52,30.31,4,1,8,0.00
2013-4-22,61,50,39,46,39,34,85,69,45,30.53,30.29,4,1,8,0.00
2013-4-23,77,56,48,52,47,44,88,74,39,30.31,30.15,3,1,5,0.00
2013-4-24,82,64,47,57,53,45,95,71,41,30.18,29.99,3,0,8,0.00
2013-4-25,80,63,54,57,48,40,81,60,33,30.32,30.03,3,0,6,0.00
2013-4-26,79,61,50,51,43,34,93,59,21,30.45,30.31,3,0,5,0.00
2013-4-27,74,62,52,51,46,40,74,57,34,30.42,30.29,2,0,7,0.00
2013-4-28,63,59,55,56,51,44,95,75,60,30.30,30.15,1,0,5,0.20
2013-4-29,74,62,54,67,60,53,98,94,78,30.15,29.99,1,0,2,0.56
2013-4-30,65,61,58,62,59,56,99,94,82,30.20,30.03,1,0,3,0.02
2013-5-1,61,59,58,58,57,56,95,92,89,30.36,30.19,4,1,7,0.00
2013-5-2,62,59,55,57,56,51,94,89,83,30.37,30.29,3,1,4,0.00
2013-5-3,70,58,50,56,50,44,93,76,49,30.31,30.19,4,1,7,0.00
2013-5-4,66,56,50,54,49,45,89,78,63,30.26,30.11,4,2,7,0.00
2013-5-5,60,56,50,56,51,47,90,86,80,30.14,30.02,4,2,6,0.00
2013-5-6,72,61,56,66,59,54,98,95,81,30.05,29.85,2,0,7,0.47
2013-5-7,76,61,53,60,55,51,98,84,46,29.99,29.88,2,0,7,0.01
2013-5-8,74,62,53,60,56,51,96,84,58,30.04,29.95,3,0,7,0.05
2013-5-9,86,66,53,63,58,52,98,78,38,30.09,30.00,3,0,5,0.00
2013-5-10,90,72,58,64,60,56,94,70,37,30.09,29.95,3,0,8,0.00
2013-5-11,84,73,67,67,63,59,96,74,48,29.99,29.81,3,0,9,0.06
2013-5-12,82,66,56,65,53,40,95,66,27,30.06,29.81,3,0,8,0.01
2013-5-13,76,58,47,44,40,33,78,55,21,30.22,30.06,4,0,8,0.00
2013-5-14,78,58,44,47,41,34,84,57,26,30.29,30.11,3,0,8,0.00
2013-5-15,98,70,54,63,55,46,80,61,31,30.12,29.90,3,0,9,0.00
2013-5-16,88,76,68,64,61,58,80,62,39,30.00,29.91,3,0,7,0.00
2013-5-17,95,75,64,67,63,60,89,70,40,30.11,30.00,2,0,4,0.01
2013-5-18,77,70,64,71,66,62,95,89,73,30.19,30.10,2,0,4,0.08
2013-5-19,85,70,65,72,67,64,99,93,59,30.19,30.08,3,0,7,0.14
2013-5-20,74,70,68,72,69,67,99,97,91,30.15,30.06,2,0,5,0.14
2013-5-21,87,74,68,73,70,67,99,88,55,30.08,29.97,2,0,7,0.00
2013-5-22,92,74,69,71,68,67,96,83,47,30.06,29.93,4,0,8,0.07
2013-5-23,82,72,69,70,68,66,96,88,64,29.99,29.85,0,0,4,0.02
2013-5-24,79,66,56,68,55,40,97,70,29,30.22,29.84,2,0,8,0.01
2013-5-25,86,60,46,50,42,35,85,56,19,30.31,30.15,0,0,4,0.00
2013-5-26,87,63,52,54,47,42,78,59,25,30.31,30.18,0,0,3,0.00
2013-5-27,93,67,52,57,53,50,93,65,25,30.32,30.19,2,0,5,0.00
2013-5-28,91,73,60,67,62,56,89,70,45,30.29,30.16,3,0,7,0.00
2013-5-29,97,76,64,68,64,61,93,69,35,30.27,30.18,5,0,9,0.00
2013-5-30,100,77,65,68,65,60,92,69,30,30.30,30.19,3,0,6,0.00
2013-5-31,97,79,68,70,67,64,92,70,37,30.26,30.12,4,0,7,0.00
2013-6-1,99,79,68,69,67,65,93,69,35,30.18,30.04,3,0,8,0.00
2013-6-2,98,79,70,69,67,65,89,69,34,30.09,29.92,4,1,7,0.00
2013-6-3,87,74,68,74,71,67,97,89,61,29.99,29.85,2,0,5,0.11
2013-6-4,82,71,66,68,65,62,97,82,55,30.14,29.96,3,0,4,0.00
2013-6-5,91,72,63,64,61,58,94,71,36,30.19,30.04,2,0,4,0.00
2013-6-6,74,70,65,73,67,59,98,89,70,30.09,29.86,2,0,7,0.30
2013-6-7,72,70,69,72,70,69,99,99,98,29.88,29.65,2,0,4,0.12
2013-6-12,99,86,79,76,74,73,85,70,47,29.94,29.88,3,0,6,0.00
2013-6-13,87,78,74,76,74,72,95,88,67,29.89,29.76,2,0,5,0.00